| time (UTC) | temp F | wind direction | speed knots | gust knots | rain 1hr in | rain 24hr in | rain mn in | humidity % | barometer mb |
| 20260903060034 | 73 | 184 | 0.0 | 0.0 | 0.00 | 0.00 | 0.00 | 100 | 1020.1 |
| 20260903054531 | 73 | 184 | 0.0 | 0.9 | 0.00 | 0.00 | 0.00 | 100 | 1020.1 |
| 20260903053030 | 73 | 184 | 0.0 | 0.9 | 0.00 | 0.00 | 0.00 | 100 | 1020.0 |
| 20260903051529 | 73 | 184 | 0.0 | 0.9 | 0.00 | 0.00 | 0.00 | 100 | 1020.0 |
| 20260903050027 | 73 | 184 | 0.0 | 0.0 | 0.00 | 0.00 | 0.00 | 100 | 1019.9 |
| 20260903044525 | 73 | 184 | 0.0 | 0.0 | 0.00 | 0.00 | 0.00 | 100 | 1019.7 |
| 20260903043023 | 74 | 184 | 0.0 | 0.0 | 0.00 | 0.00 | 0.00 | 100 | 1019.7 |
| 20260903041526 | 74 | 184 | 0.0 | 0.9 | 0.00 | 0.00 | 0.00 | 100 | 1019.7 |
| 20260903040018 | 74 | 184 | 0.0 | 0.0 | 0.00 | 0.00 | 0.00 | 100 | 1019.7 |
| 20260903034515 | 74 | 184 | 0.0 | 0.0 | 0.00 | 0.00 | 0.00 | 100 | 1019.7 |
| 20260903033016 | 75 | 360 | 0.0 | 0.0 | 0.00 | 0.00 | 0.00 | 100 | 1019.8 |
| 20260903031514 | 75 | 184 | 0.0 | 0.0 | 0.00 | 0.00 | 0.00 | 100 | 1020.0 |
| 20260903030018 | 76 | 184 | 0.0 | 0.0 | 0.00 | 0.00 | 0.00 | 100 | 1020.0 |
| 20260903024513 | 76 | 184 | 0.0 | 0.0 | 0.00 | 0.00 | 0.00 | 100 | 1020.1 |
| 20260903023013 | 76 | 184 | 0.0 | 0.0 | 0.00 | 0.00 | 0.00 | 100 | 1020.1 |
| 20260903021513 | 77 | 184 | 0.0 | 0.0 | 0.00 | 0.00 | 0.00 | 100 | 1020.1 |
| 20260903020013 | 77 | 184 | 0.0 | 0.0 | 0.00 | 0.00 | 0.00 | 100 | 1020.1 |
| 20260903014511 | 78 | 184 | 0.0 | 0.0 | 0.00 | 0.00 | 0.00 | 100 | 1020.0 |
| 20260903013016 | 79 | 184 | 0.0 | 0.0 | 0.00 | 0.00 | 0.00 | 100 | 1019.9 |
| 20260903011514 | 80 | 184 | 0.0 | 0.0 | 0.00 | 0.00 | 0.00 | 100 | 1019.8 |
| 20260903010019 | 81 | 184 | 0.0 | 0.0 | 0.00 | 0.00 | 0.00 | 100 | 1019.6 |
| 20260903004509 | 82 | 184 | 0.0 | 0.0 | 0.00 | 0.00 | 0.00 | 100 | 1019.3 |
| 20260903003009 | 83 | 184 | 0.0 | 0.9 | 0.00 | 0.00 | 0.00 | 100 | 1019.2 |
| 20260903001508 | 85 | 184 | 0.0 | 1.7 | 0.00 | 0.00 | 0.00 | 100 | 1019.1 |
| 20260903000009 | 85 | 184 | 0.0 | 1.7 | 0.00 | 0.00 | 0.00 | 100 | 1019.2 |
| 20260902234507 | 86 | 188 | 0.9 | 1.7 | 0.00 | 0.00 | 0.00 | 100 | 1019.1 |
| 20260902233006 | 87 | 189 | 1.7 | 3.5 | 0.00 | 0.00 | 0.00 | 100 | 1019.0 |
| 20260902231506 | 89 | 173 | 1.7 | 3.5 | 0.00 | 0.00 | 0.00 | 100 | 1019.1 |
| 20260902230002 | 90 | 209 | 2.6 | 5.2 | 0.00 | 0.00 | 0.00 | 100 | 1019.2 |
| 20260902224605 | 91 | 210 | 1.7 | 4.3 | 0.00 | 0.00 | 0.00 | 100 | 1019.2 |
| 20260902223056 | 91 | 223 | 1.7 | 7.0 | 0.00 | 0.00 | 0.00 | 100 | 1019.1 |
| 20260902221603 | 92 | 214 | 2.6 | 6.1 | 0.00 | 0.00 | 0.00 | 100 | 1019.2 |
| 20260902220056 | 92 | 227 | 2.6 | 7.0 | 0.00 | 0.00 | 0.00 | 100 | 1019.4 |
| 20260902214540 | 92 | 219 | 3.5 | 7.0 | 0.00 | 0.00 | 0.00 | 100 | 1019.3 |
| 20260902213039 | 92 | 165 | 3.5 | 7.8 | 0.00 | 0.00 | 0.00 | 100 | 1019.4 |
| 20260902211532 | 93 | 212 | 3.5 | 8.7 | 0.00 | 0.00 | 0.00 | 100 | 1019.4 |
| 20260902210026 | 93 | 229 | 2.6 | 7.0 | 0.00 | 0.00 | 0.00 | 100 | 1019.5 |
| 20260902204525 | 93 | 194 | 3.5 | 8.7 | 0.00 | 0.00 | 0.00 | 100 | 1019.6 |
| 20260902203017 | 93 | 216 | 3.5 | 8.7 | 0.00 | 0.00 | 0.00 | 100 | 1019.7 |
| 20260902201534 | 93 | 217 | 4.3 | 10.4 | 0.00 | 0.00 | 0.00 | 100 | 1019.8 |
| 20260902200009 | 93 | 250 | 2.6 | 8.7 | 0.00 | 0.00 | 0.00 | 100 | 1019.9 |
| 20260902194512 | 94 | 229 | 2.6 | 7.8 | 0.00 | 0.00 | 0.00 | 100 | 1020.2 |
| 20260902193107 | 93 | 215 | 3.5 | 9.6 | 0.00 | 0.00 | 0.00 | 100 | 1020.5 |
| 20260902191624 | 93 | 252 | 4.3 | 9.6 | 0.00 | 0.00 | 0.00 | 100 | 1020.6 |
| 20260902190053 | 93 | 196 | 4.3 | 10.4 | 0.00 | 0.00 | 0.00 | 100 | 1020.7 |
| 20260902184549 | 92 | 214 | 4.3 | 9.6 | 0.00 | 0.00 | 0.00 | 100 | 1020.8 |
| 20260902183054 | 92 | 184 | 5.2 | 8.7 | 0.00 | 0.00 | 0.00 | 100 | 1020.9 |
| 20260902181540 | 92 | 232 | 0.9 | 7.8 | 0.00 | 0.00 | 0.00 | 100 | 1021.0 |
| 20260902180039 | 92 | 202 | 5.2 | 8.7 | 0.00 | 0.00 | 0.00 | 100 | 1021.2 |
| 20260902174537 | 92 | 240 | 1.7 | 7.0 | 0.00 | 0.00 | 0.00 | 100 | 1021.2 |
| 20260902173031 | 91 | 252 | 3.5 | 7.8 | 0.00 | 0.00 | 0.00 | 100 | 1021.4 |
| 20260902171529 | 91 | 202 | 4.3 | 7.8 | 0.00 | 0.00 | 0.00 | 100 | 1021.5 |
| 20260902170023 | 91 | 202 | 4.3 | 8.7 | 0.00 | 0.00 | 0.00 | 100 | 1021.7 |
| 20260902164516 | 90 | 200 | 2.6 | 8.7 | 0.00 | 0.00 | 0.00 | 100 | 1021.7 |
| 20260902163012 | 90 | 188 | 3.5 | 6.1 | 0.00 | 0.00 | 0.00 | 100 | 1021.9 |
| 20260902161511 | 90 | 218 | 1.7 | 7.0 | 0.00 | 0.00 | 0.00 | 100 | 1022.1 |
| 20260902160007 | 89 | 213 | 2.6 | 6.1 | 0.00 | 0.00 | 0.00 | 100 | 1022.2 |
| 20260902154502 | 89 | 194 | 0.9 | 6.1 | 0.00 | 0.00 | 0.00 | 100 | 1022.2 |
| 20260902153058 | 88 | 235 | 0.9 | 7.8 | 0.00 | 0.00 | 0.00 | 100 | 1022.2 |
| 20260902151552 | 88 | 242 | 3.5 | 7.0 | 0.00 | 0.00 | 0.00 | 100 | 1022.3 |
| 20260902150048 | 87 | 213 | 2.6 | 5.2 | 0.00 | 0.00 | 0.00 | 100 | 1022.4 |
| 20260902144544 | 86 | 181 | 2.6 | 6.1 | 0.00 | 0.00 | 0.00 | 100 | 1022.4 |
| 20260902143038 | 85 | 207 | 2.6 | 7.0 | 0.00 | 0.00 | 0.00 | 100 | 1022.3 |
| 20260902141534 | 84 | 215 | 1.7 | 5.2 | 0.00 | 0.00 | 0.00 | 100 | 1022.4 |
| 20260902140032 | 83 | 192 | 1.7 | 4.3 | 0.00 | 0.00 | 0.00 | 100 | 1022.4 |
| 20260902134535 | 81 | 209 | 2.6 | 4.3 | 0.00 | 0.00 | 0.00 | 100 | 1022.3 |
| 20260902133025 | 80 | 360 | 1.7 | 5.2 | 0.00 | 0.00 | 0.00 | 100 | 1022.4 |
| 20260902131536 | 78 | 360 | 1.7 | 5.2 | 0.00 | 0.00 | 0.00 | 100 | 1022.5 |
| 20260902130019 | 77 | 360 | 2.6 | 7.0 | 0.00 | 0.00 | 0.00 | 100 | 1022.3 |
| 20260902124513 | 75 | 360 | 2.6 | 5.2 | 0.00 | 0.00 | 0.00 | 100 | 1022.3 |
| 20260902123012 | 74 | 360 | 1.7 | 3.5 | 0.00 | 0.00 | 0.00 | 100 | 1022.2 |
| 20260902121511 | 72 | 360 | 0.9 | 2.6 | 0.00 | 0.00 | 0.00 | 100 | 1022.2 |
| 20260902120010 | 71 | 202 | 0.0 | 0.0 | 0.00 | 0.00 | 0.00 | 100 | 1022.1 |
| 20260902114513 | 71 | 202 | 0.0 | 0.0 | 0.00 | 0.00 | 0.00 | 100 | 1022.1 |
| 20260902113006 | 71 | 202 | 0.0 | 1.7 | 0.00 | 0.00 | 0.00 | 100 | 1021.8 |
| 20260902111506 | 70 | 202 | 0.0 | 1.7 | 0.00 | 0.00 | 0.00 | 100 | 1021.8 |
| 20260902110007 | 70 | 202 | 0.0 | 0.9 | 0.00 | 0.00 | 0.00 | 100 | 1021.7 |
| 20260902104505 | 70 | 202 | 0.0 | 1.7 | 0.00 | 0.00 | 0.00 | 100 | 1021.7 |
| 20260902103006 | 71 | 202 | 0.0 | 0.9 | 0.00 | 0.00 | 0.00 | 100 | 1021.8 |
| 20260902101503 | 71 | 202 | 0.0 | 1.7 | 0.00 | 0.00 | 0.00 | 100 | 1021.7 |
| 20260902100003 | 70 | 202 | 0.0 | 0.9 | 0.00 | 0.00 | 0.00 | 100 | 1021.6 |
| 20260902094501 | 70 | 202 | 0.0 | 0.0 | 0.00 | 0.00 | 0.00 | 100 | 1021.6 |
| 20260902093000 | 70 | 202 | 0.0 | 0.0 | 0.00 | 0.00 | 0.00 | 100 | 1021.7 |
| 20260902091600 | 70 | 202 | 0.0 | 0.0 | 0.00 | 0.00 | 0.00 | 100 | 1021.6 |
| 20260902090114 | 70 | 202 | 0.0 | 0.9 | 0.00 | 0.00 | 0.00 | 100 | 1021.6 |
| 20260902084601 | 70 | 202 | 0.0 | 0.9 | 0.00 | 0.00 | 0.00 | 100 | 1021.6 |
| 20260902083038 | 70 | 202 | 0.0 | 0.0 | 0.00 | 0.00 | 0.00 | 100 | 1021.4 |
| 20260902081536 | 71 | 202 | 0.0 | 0.0 | 0.00 | 0.00 | 0.00 | 100 | 1021.3 |
| 20260902080037 | 71 | 202 | 0.0 | 0.0 | 0.00 | 0.00 | 0.00 | 100 | 1021.2 |
| 20260902074533 | 71 | 202 | 0.0 | 0.0 | 0.00 | 0.00 | 0.00 | 100 | 1021.0 |
| 20260902073032 | 71 | 202 | 0.0 | 0.0 | 0.00 | 0.00 | 0.00 | 100 | 1020.9 |
| 20260902071533 | 71 | 202 | 0.0 | 0.9 | 0.00 | 0.00 | 0.00 | 100 | 1020.8 |
| 20260902070031 | 72 | 202 | 0.0 | 0.9 | 0.00 | 0.00 | 0.00 | 100 | 1020.7 |
| 20260902064533 | 72 | 202 | 0.0 | 0.0 | 0.00 | 0.00 | 0.00 | 100 | 1020.6 |
| 20260902063027 | 72 | 202 | 0.0 | 0.0 | 0.00 | 0.00 | 0.00 | 100 | 1020.6 |
| 20260902061545 | 72 | 202 | 0.0 | 0.0 | 0.00 | 0.00 | 0.00 | 100 | 1020.7 |